Regional Weather Roundup
Issued by NWS Little Rock, AR

Home | Current Version | Previous Version | Text Only | Print | Product List | Glossary Off
Versions: 1 2 3 4 5 6 7 8 9 10 11 12 13 14 15 16 17 18 19 20 21 22 23 24 25 26 27 28 29 30 31 32 33 34 35 36 37 38 39 40 41 42 43 44 45 46 47 48 49 50

000
ASUS44 KLZK 261705
RWRLZK

WEATHER ROUNDUP FOR ARKANSAS
NATIONAL WEATHER SERVICE LITTLE ROCK AR
1200 PM CDT THU APR 26 2018

NOTE: "FAIR" INDICATES FEW OR NO CLOUDS BELOW 12,000 FEET WITH NO
SIGNIFICANT WEATHER AND/OR OBSTRUCTIONS TO VISIBILITY.

ARZ001-003-010-029-261800-
NORTHWEST ARKANSAS

CITY           SKY/WX    TMP DP  RH WIND       PRES   REMARKS
FAYETTEVILLE   CLOUDY    54  47  77 N8        30.02S
FORT SMITH     CLOUDY    62  50  64 N10       30.01R
HARRISON       CLOUDY    52  49  89 N7        30.01S
BENTONVILLE    CLOUDY    52  47  83 N8        30.05S
SILOAM SPGS    CLOUDY    53  48  83 N9        30.04S
HIGHFILL       CLOUDY    54  47  77 N9        30.04R
SPRINGDALE     CLOUDY    54  50  87 N7        30.04R
$$

ARZ004-005-016-261800-
NORTH CENTRAL ARKANSAS

CITY           SKY/WX    TMP DP  RH WIND       PRES   REMARKS
BATESVILLE     CLOUDY    56  51  84 NW8       29.96S
FLIPPIN        CLOUDY    57  50  77 CALM      30.00S
MTN HOME       PTSUNNY   59  50  72 NE7       29.98S
$$

ARZ040-041-261800-
WEST CENTRAL ARKANSAS

CITY           SKY/WX    TMP DP  RH WIND       PRES   REMARKS
MENA           CLOUDY    59  54  82 W5        30.01S
MOUNT IDA      CLOUDY    57  51  80 NW6       29.98R
$$

ARZ009-017-025-026-028-261800-
NORTHEAST ARKANSAS

CITY           SKY/WX    TMP DP  RH WIND       PRES   REMARKS
CORNING        PTSUNNY   57  54  88 N8G15     29.94S FOG
JONESBORO      LGT RAIN  58  56  93 N7        29.92R
NEWPORT        CLOUDY    58  54  86 NW14      29.94S
WALNUT RIDGE   LGT RAIN  57  53  86 NW13      29.93S
BLYTHEVILLE    PTSUNNY   62  56  80 NE13      29.89S
NW BLYTHEVILLE CLOUDY    61  55  82 NE9       29.90R
$$

ARZ022-023-033-042-044-261800-
CENTRAL ARKANSAS

CITY           SKY/WX    TMP DP  RH WIND       PRES   REMARKS
LITTLE ROCK    PTSUNNY   64  54  69 N15       29.95F
N LITTLE ROCK    N/A     59  53  79 N8G16     29.92F
JACKSONVILLE   PTSUNNY   63  52  67 N9        29.94S
CONWAY         MOSUNNY   63  52  67 N14       29.95F
SEARCY         CLOUDY    60  55  83 N13       29.96R
HOT SPRINGS    CLOUDY    61  52  72 NW6       29.97S
RUSSELLVILLE   CLOUDY    62  50  64 N9        29.97R
CLINTON        CLOUDY    59  52  77 NW12      29.98F
$$

ARZ036-261800-
EAST ARKANSAS

CITY           SKY/WX    TMP DP  RH WIND       PRES   REMARKS
WEST MEMPHIS   CLOUDY    60  32  34 N9        29.88R
$$

ARZ050-053-066-070-073-261800-
SOUTHWEST ARKANSAS

CITY           SKY/WX    TMP DP  RH WIND       PRES   REMARKS
ARKADELPHIA    CLOUDY    62  51  67 NW8       29.99R
CAMDEN         CLOUDY    61  48  63 NW6G13    29.98R
TEXARKANA      MOSUNNY   60  49  66 N9        30.00F
EL DORADO      CLOUDY    57  53  86 W8        30.00R
DE QUEEN       PTSUNNY   62  50  64 NW6       29.99S
$$

ARZ056-057-069-261800-
SOUTHEAST ARKANSAS

CITY           SKY/WX    TMP DP  RH WIND       PRES   REMARKS
PINE BLUFF     CLOUDY    60  52  74 N14G23    29.95S
STUTTGART      CLOUDY    61  55  81 NW15      29.94R
MONTICELLO     CLOUDY    61  52  72 NW8       29.93S

$$





USA.gov is the U.S. government's official web portal to all federal, state and local government web resources and services.